Starlink 33604

operational
NORAD ID: 63070 Int'l Des: 2025-035 Owner: SPXS Country: US Constellation: starlink
LEOCIRCULAR

Über Starlink 33604

Beschreibung wird geladen...

Live-Position

3D-Globus wird geladen...

Nächste Überflüge

Höhenverlauf

Altitude vs Time

uPlot chart will show altitude changes over time

Zweizeiliger Elementsatz

1 63070U 25035U 25257.46332959 .00022842 00000-0 83666-3 0 9993
2 63070 43.0018 62.7050 0001264 183.4556 176.6287 15.27594308 32768
Epoch: 14. Sept. 2025 • Age: 31 hours

Aktueller Status

Höhe 494.5 km
Geschwindigkeit 7.62 km/s
Subsatellitenpunkt -40.21°S, 34.44°E
Startdatum 21. Feb. 2025
Alter 0.5 years
Typ internet

Technische Details

Klassifizierung Payload
Masse 575.00 kg
Trockenmasse 530.00 kg
Gesamtmasse 575.00 kg
Länge 0.30 m
Durchmesser 4.10 m
Spannweite 29.00 m
Form Box + pan
Hersteller SPXS
Bus-Typ Starlink V2MO
Phasenstatus In Orbit
Besitzer/Staat SPXS/US

Große Konstellationen

Loading constellations...